Time,TemperatureF,DewpointF,PressureIn,WindDirection,WindDirectionDegrees,WindSpeedMPH,WindSpeedGustMPH,Humidity,HourlyPrecipIn,Conditions,Clouds,dailyrainin,SoftwareType,DateUTC
2013-01-29 00:00:00,30.0,27.7,29.72,NNW,338,0.0,0.0,91,0.00,,,-99.99,Weather View 32 v60,2013-01-29 06:00:00,
2013-01-29 00:05:00,31.0,28.7,29.71,NNE,22,0.0,0.0,91,0.00,,,-99.99,Weather View 32 v60,2013-01-29 06:05:00,
2013-01-29 00:10:00,31.0,28.7,29.71,NNE,22,0.0,0.0,91,0.00,,,-99.99,Weather View 32 v60,2013-01-29 06:10:00,
2013-01-29 00:15:00,31.0,28.7,29.71,NE,45,0.0,0.0,91,0.00,,,-99.99,Weather View 32 v60,2013-01-29 06:15:00,
2013-01-29 00:20:00,31.0,28.7,29.70,North,0,0.0,0.0,91,0.00,,,-99.99,Weather View 32 v60,2013-01-29 06:20:00,
2013-01-29 00:25:00,31.0,28.7,29.70,SW,225,0.0,0.0,91,0.00,,,-99.99,Weather View 32 v60,2013-01-29 06:25:00,
2013-01-29 00:30:00,31.0,28.7,29.70,NW,315,0.0,0.0,91,0.00,,,-99.99,Weather View 32 v60,2013-01-29 06:30:00,
2013-01-29 00:35:00,31.0,28.7,29.69,East,90,0.0,0.0,91,0.00,,,-99.99,Weather View 32 v60,2013-01-29 06:35:00,
2013-01-29 00:40:00,31.0,28.7,29.69,East,90,0.0,0.0,91,0.00,,,-99.99,Weather View 32 v60,2013-01-29 06:40:00,
2013-01-29 00:45:00,31.0,28.7,29.69,ESE,112,0.0,0.0,91,0.00,,,-99.99,Weather View 32 v60,2013-01-29 06:45:00,
2013-01-29 00:50:00,31.0,28.7,29.69,South,180,0.0,0.0,91,0.00,,,-99.99,Weather View 32 v60,2013-01-29 06:50:00,
2013-01-29 00:55:00,31.0,28.7,29.68,SE,135,0.0,0.0,91,0.00,,,-99.99,Weather View 32 v60,2013-01-29 06:55:00,
2013-01-29 01:00:00,31.0,28.7,29.68,East,90,0.0,0.0,91,0.00,,,-99.99,Weather View 32 v60,2013-01-29 07:00:00,
2013-01-29 01:05:00,31.0,28.7,29.68,ENE,68,0.0,0.0,91,0.00,,,-99.99,Weather View 32 v60,2013-01-29 07:05:00,
2013-01-29 01:10:00,31.0,28.7,29.68,East,90,0.0,0.0,91,0.00,,,-99.99,Weather View 32 v60,2013-01-29 07:10:00,
2013-01-29 01:15:00,31.0,28.7,29.67,ENE,68,0.0,0.0,91,0.00,,,-99.99,Weather View 32 v60,2013-01-29 07:15:00,
2013-01-29 01:20:00,31.0,28.7,29.68,North,0,0.0,0.0,91,0.00,,,-99.99,Weather View 32 v60,2013-01-29 07:20:00,
2013-01-29 01:25:00,31.0,28.7,29.67,ENE,68,0.0,0.0,91,0.00,,,-99.99,Weather View 32 v60,2013-01-29 07:25:00,
2013-01-29 01:30:00,31.0,28.7,29.67,SSW,202,0.0,0.0,91,0.00,,,-99.99,Weather View 32 v60,2013-01-29 07:30:00,
2013-01-29 01:35:00,31.0,28.7,29.67,SSW,202,0.0,0.0,91,0.00,,,-99.99,Weather View 32 v60,2013-01-29 07:35:00,
2013-01-29 01:40:00,31.0,28.7,29.67,North,0,0.0,0.0,91,0.00,,,-99.99,Weather View 32 v60,2013-01-29 07:40:00,
2013-01-29 01:45:00,31.0,28.7,29.67,NW,315,0.0,0.0,91,0.00,,,-99.99,Weather View 32 v60,2013-01-29 07:45:00,
2013-01-29 01:50:00,31.0,28.7,29.67,ESE,112,0.0,0.0,91,0.00,,,-99.99,Weather View 32 v60,2013-01-29 07:50:00,
2013-01-29 01:55:00,31.0,28.7,29.67,NNE,22,0.0,0.0,91,0.00,,,-99.99,Weather View 32 v60,2013-01-29 07:55:00,
2013-01-29 02:00:00,31.0,28.7,29.67,North,0,0.0,0.0,91,0.00,,,-99.99,Weather View 32 v60,2013-01-29 08:00:00,
2013-01-29 02:05:00,31.0,28.7,29.66,SSE,158,0.0,0.0,91,0.00,,,-99.99,Weather View 32 v60,2013-01-29 08:05:00,
2013-01-29 02:10:00,31.0,28.7,29.65,ESE,112,0.0,0.0,91,0.00,,,-99.99,Weather View 32 v60,2013-01-29 08:10:00,
2013-01-29 02:15:00,31.0,28.7,29.65,East,90,0.0,0.0,91,0.00,,,-99.99,Weather View 32 v60,2013-01-29 08:15:00,
2013-01-29 02:20:00,31.0,28.7,29.64,NNW,338,0.0,0.0,91,0.00,,,-99.99,Weather View 32 v60,2013-01-29 08:20:00,
2013-01-29 02:25:00,31.0,28.7,29.65,ENE,68,0.0,0.0,91,0.00,,,-99.99,Weather View 32 v60,2013-01-29 08:25:00,
2013-01-29 02:30:00,31.0,28.7,29.65,WNW,292,0.0,0.0,91,0.00,,,-99.99,Weather View 32 v60,2013-01-29 08:30:00,
2013-01-29 02:35:00,31.0,28.7,29.66,NE,45,0.0,0.0,91,0.00,,,-99.99,Weather View 32 v60,2013-01-29 08:35:00,
2013-01-29 02:40:00,31.0,28.7,29.66,SSE,158,0.0,0.0,91,0.00,,,-99.99,Weather View 32 v60,2013-01-29 08:40:00,
2013-01-29 02:50:00,31.0,28.7,29.65,NNE,22,0.0,0.0,91,0.00,,,-99.99,Weather View 32 v60,2013-01-29 08:50:00,
2013-01-29 03:00:00,31.0,28.7,29.66,West,270,0.0,0.0,91,0.00,,,-99.99,Weather View 32 v60,2013-01-29 09:00:00,
2013-01-29 03:05:00,31.0,28.7,29.67,North,0,0.0,0.0,91,0.00,,,-99.99,Weather View 32 v60,2013-01-29 09:05:00,
2013-01-29 03:20:00,31.0,28.7,29.64,ENE,68,0.0,0.0,91,0.00,,,-99.99,Weather View 32 v60,2013-01-29 09:20:00,
2013-01-29 03:25:00,31.0,28.7,29.64,East,90,0.0,0.0,91,0.00,,,-99.99,Weather View 32 v60,2013-01-29 09:25:00,
2013-01-29 03:30:00,31.0,28.7,29.64,East,90,0.0,0.0,91,0.00,,,-99.99,Weather View 32 v60,2013-01-29 09:30:00,
2013-01-29 03:45:00,31.0,28.7,29.65,SE,135,0.0,0.0,91,0.00,,,-99.99,Weather View 32 v60,2013-01-29 09:45:00,
2013-01-29 03:55:00,31.0,28.7,29.66,North,0,0.0,0.0,91,0.00,,,-99.99,Weather View 32 v60,2013-01-29 09:55:00,
2013-01-29 04:00:00,31.0,28.7,29.63,East,90,0.0,0.0,91,0.00,,,-99.99,Weather View 32 v60,2013-01-29 10:00:00,
2013-01-29 04:10:00,31.0,28.7,29.67,North,0,0.0,0.0,91,0.00,,,-99.99,Weather View 32 v60,2013-01-29 10:10:00,
2013-01-29 04:15:00,31.0,28.7,29.65,ENE,68,0.0,0.0,91,0.00,,,-99.99,Weather View 32 v60,2013-01-29 10:15:00,
2013-01-29 04:20:00,31.0,28.9,29.64,NNE,22,0.0,0.0,92,0.00,,,-99.99,Weather View 32 v60,2013-01-29 10:20:00,
2013-01-29 04:25:00,31.0,28.9,29.64,North,0,0.0,0.0,92,0.00,,,-99.99,Weather View 32 v60,2013-01-29 10:25:00,
2013-01-29 04:30:00,31.0,28.9,29.64,NW,315,0.0,0.0,92,0.00,,,-99.99,Weather View 32 v60,2013-01-29 10:30:00,
2013-01-29 04:35:00,31.0,28.7,29.63,East,90,0.0,0.0,91,0.00,,,-99.99,Weather View 32 v60,2013-01-29 10:35:00,
2013-01-29 04:40:00,31.0,28.7,29.62,East,90,0.0,0.0,91,0.00,,,-99.99,Weather View 32 v60,2013-01-29 10:40:00,
2013-01-29 04:45:00,31.0,28.7,29.62,North,0,0.0,0.0,91,0.00,,,-99.99,Weather View 32 v60,2013-01-29 10:45:00,
2013-01-29 04:50:00,31.0,28.7,29.62,East,90,0.0,0.0,91,0.00,,,-99.99,Weather View 32 v60,2013-01-29 10:50:00,
2013-01-29 05:00:00,31.0,28.9,29.63,NNW,338,0.0,0.0,92,0.00,,,-99.99,Weather View 32 v60,2013-01-29 11:00:00,
2013-01-29 05:05:00,31.0,28.7,29.63,ESE,112,0.0,0.0,91,0.00,,,-99.99,Weather View 32 v60,2013-01-29 11:05:00,
2013-01-29 05:10:00,31.0,28.9,29.63,North,0,0.0,0.0,92,0.00,,,-99.99,Weather View 32 v60,2013-01-29 11:10:00,
2013-01-29 05:35:00,31.0,28.9,29.64,NW,315,0.0,0.0,92,0.00,,,-99.99,Weather View 32 v60,2013-01-29 11:35:00,
2013-01-29 05:40:00,31.0,28.9,29.64,North,0,0.0,0.0,92,0.00,,,-99.99,Weather View 32 v60,2013-01-29 11:40:00,
2013-01-29 05:50:00,31.0,28.9,29.63,East,90,0.0,0.0,92,0.00,,,-99.99,Weather View 32 v60,2013-01-29 11:50:00,
2013-01-29 05:55:00,31.0,28.9,29.63,North,0,0.0,0.0,92,0.00,,,-99.99,Weather View 32 v60,2013-01-29 11:55:00,
2013-01-29 06:10:00,30.0,28.0,29.63,North,0,0.0,0.0,92,0.00,,,-99.99,Weather View 32 v60,2013-01-29 12:10:00,
2013-01-29 06:15:00,30.0,28.0,29.64,North,0,0.0,0.0,92,0.00,,,-99.99,Weather View 32 v60,2013-01-29 12:15:00,
2013-01-29 06:20:00,30.0,28.0,29.63,NNE,22,0.0,0.0,92,0.00,,,-99.99,Weather View 32 v60,2013-01-29 12:20:00,
2013-01-29 06:25:00,30.0,28.0,29.62,NNE,22,0.0,0.0,92,0.00,,,-99.99,Weather View 32 v60,2013-01-29 12:25:00,
2013-01-29 06:30:00,30.0,28.0,29.63,NNW,338,0.0,0.0,92,0.00,,,-99.99,Weather View 32 v60,2013-01-29 12:30:00,
2013-01-29 06:35:00,30.0,28.0,29.63,NNW,338,0.0,0.0,92,0.00,,,-99.99,Weather View 32 v60,2013-01-29 12:35:00,
2013-01-29 06:45:00,30.0,28.0,29.60,North,0,0.0,0.0,92,0.00,,,-99.99,Weather View 32 v60,2013-01-29 12:45:00,
2013-01-29 06:50:00,30.0,28.0,29.61,East,90,0.0,0.0,92,0.00,,,-99.99,Weather View 32 v60,2013-01-29 12:50:00,
2013-01-29 07:00:00,30.0,28.0,29.62,SW,225,0.0,0.0,92,0.00,,,-99.99,Weather View 32 v60,2013-01-29 13:00:00,
2013-01-29 07:10:00,31.0,28.9,29.64,West,270,0.0,0.0,92,0.00,,,-99.99,Weather View 32 v60,2013-01-29 13:10:00,
2013-01-29 07:11:00,30.0,28.0,29.62,North,0,0.0,0.0,92,0.00,,,-99.99,Weather View 32 v60,2013-01-29 13:11:00,
2013-01-29 07:20:00,30.0,28.0,29.62,North,0,0.0,0.0,92,0.00,,,-99.99,Weather View 32 v60,2013-01-29 13:20:00,
2013-01-29 07:30:00,30.0,28.0,29.63,North,0,0.0,0.0,92,0.00,,,-99.99,Weather View 32 v60,2013-01-29 13:30:00,
2013-01-29 07:35:00,30.0,28.0,29.63,NW,315,0.0,0.0,92,0.00,,,-99.99,Weather View 32 v60,2013-01-29 13:35:00,
2013-01-29 07:45:00,30.0,28.0,29.63,WNW,292,0.0,0.0,92,0.00,,,-99.99,Weather View 32 v60,2013-01-29 13:45:00,
2013-01-29 07:55:00,30.0,28.0,29.64,West,270,0.0,0.0,92,0.00,,,-99.99,Weather View 32 v60,2013-01-29 13:55:00,
2013-01-29 08:00:00,30.0,28.0,29.64,WSW,248,0.0,0.0,92,0.00,,,-99.99,Weather View 32 v60,2013-01-29 14:00:00,
2013-01-29 08:05:00,30.0,28.0,29.64,West,270,0.0,0.0,92,0.00,,,-99.99,Weather View 32 v60,2013-01-29 14:05:00,
2013-01-29 08:12:00,31.0,28.9,29.64,West,270,0.0,0.0,92,0.00,,,-99.99,Weather View 32 v60,2013-01-29 14:12:00,
2013-01-29 08:20:00,31.0,29.2,29.64,WSW,248,0.0,0.0,93,0.00,,,-99.99,Weather View 32 v60,2013-01-29 14:20:00,
2013-01-29 08:30:00,31.0,29.2,29.65,NW,315,0.0,0.0,93,0.00,,,-99.99,Weather View 32 v60,2013-01-29 14:30:00,
2013-01-29 08:40:00,31.0,29.2,29.67,NW,315,0.0,0.0,93,0.00,,,-99.99,Weather View 32 v60,2013-01-29 14:40:00,
2013-01-29 08:45:00,31.0,29.2,29.66,NNW,338,0.0,0.0,93,0.00,,,-99.99,Weather View 32 v60,2013-01-29 14:45:00,
2013-01-29 08:55:00,31.0,29.2,29.66,North,0,0.0,0.0,93,0.00,,,-99.99,Weather View 32 v60,2013-01-29 14:55:00,
2013-01-29 09:00:00,31.0,29.2,29.65,NNW,338,0.0,0.0,93,0.00,,,-99.99,Weather View 32 v60,2013-01-29 15:00:00,
2013-01-29 09:05:00,31.0,29.2,29.66,WNW,292,0.0,0.0,93,0.00,,,-99.99,Weather View 32 v60,2013-01-29 15:05:00,
2013-01-29 09:10:00,31.0,29.2,29.66,NNW,338,0.0,0.0,93,0.00,,,-99.99,Weather View 32 v60,2013-01-29 15:10:00,
2013-01-29 09:15:00,31.0,29.2,29.66,NNW,338,0.0,0.0,93,0.00,,,-99.99,Weather View 32 v60,2013-01-29 15:15:00,
2013-01-29 09:20:00,31.0,29.2,29.66,NNW,338,0.0,0.0,93,0.00,,,-99.99,Weather View 32 v60,2013-01-29 15:20:00,
2013-01-29 09:25:00,31.0,29.2,29.66,NNW,338,0.0,0.0,93,0.00,,,-99.99,Weather View 32 v60,2013-01-29 15:25:00,
2013-01-29 09:35:00,31.0,29.2,29.66,WNW,292,0.0,0.0,93,0.00,,,-99.99,Weather View 32 v60,2013-01-29 15:35:00,
2013-01-29 09:40:00,31.0,29.2,29.66,NNW,338,0.0,0.0,93,0.00,,,-99.99,Weather View 32 v60,2013-01-29 15:40:00,
2013-01-29 09:45:00,31.0,29.2,29.67,NW,315,0.0,0.0,93,0.00,,,-99.99,Weather View 32 v60,2013-01-29 15:45:00,
2013-01-29 09:50:00,31.0,29.2,29.67,NNW,338,0.0,0.0,93,0.00,,,-99.99,Weather View 32 v60,2013-01-29 15:50:00,
2013-01-29 09:55:00,32.0,30.2,29.67,NNW,338,0.0,0.0,93,0.00,,,-99.99,Weather View 32 v60,2013-01-29 15:55:00,
2013-01-29 10:00:00,32.0,30.2,29.66,WNW,292,0.0,0.0,93,0.00,,,-99.99,Weather View 32 v60,2013-01-29 16:00:00,
2013-01-29 10:05:00,32.0,30.2,29.66,North,0,0.0,0.0,93,0.00,,,-99.99,Weather View 32 v60,2013-01-29 16:05:00,
2013-01-29 10:13:00,32.0,30.2,29.66,NNE,22,0.0,0.0,93,0.00,,,-99.99,Weather View 32 v60,2013-01-29 16:13:00,
2013-01-29 10:20:00,32.0,30.2,29.66,NNE,22,0.0,0.0,93,0.00,,,-99.99,Weather View 32 v60,2013-01-29 16:20:00,
2013-01-29 10:25:00,32.0,30.2,29.66,NNE,22,0.0,0.0,93,0.00,,,-99.99,Weather View 32 v60,2013-01-29 16:25:00,
2013-01-29 10:35:00,32.0,29.9,29.67,NNW,338,0.0,0.0,92,0.00,,,-99.99,Weather View 32 v60,2013-01-29 16:35:00,
2013-01-29 10:40:00,32.0,29.9,29.68,North,0,0.0,0.0,92,0.00,,,-99.99,Weather View 32 v60,2013-01-29 16:40:00,
2013-01-29 10:45:00,32.0,29.9,29.68,NNW,338,0.0,0.0,92,0.00,,,-99.99,Weather View 32 v60,2013-01-29 16:45:00,
2013-01-29 10:50:00,32.0,29.9,29.69,NNE,22,0.0,0.0,92,0.00,,,-99.99,Weather View 32 v60,2013-01-29 16:50:00,
2013-01-29 11:00:00,32.0,29.9,29.69,North,0,0.0,5.0,92,0.00,,,-99.99,Weather View 32 v60,2013-01-29 17:00:00,
2013-01-29 11:05:00,32.0,29.9,29.69,North,0,10.0,10.0,92,0.00,,,-99.99,Weather View 32 v60,2013-01-29 17:05:00,
2013-01-29 11:13:00,32.0,29.7,29.69,North,0,7.0,10.0,91,0.00,,,-99.99,Weather View 32 v60,2013-01-29 17:13:00,
2013-01-29 11:20:00,33.0,30.7,29.70,North,0,5.0,12.0,91,0.00,,,-99.99,Weather View 32 v60,2013-01-29 17:20:00,
2013-01-29 11:25:00,33.0,30.7,29.70,North,0,5.0,12.0,91,0.00,,,-99.99,Weather View 32 v60,2013-01-29 17:25:00,
2013-01-29 11:30:00,33.0,30.7,29.70,NNE,22,3.0,12.0,91,0.01,,,-99.99,Weather View 32 v60,2013-01-29 17:30:00,
2013-01-29 11:35:00,33.0,30.7,29.70,North,0,5.0,12.0,91,0.01,,,-99.99,Weather View 32 v60,2013-01-29 17:35:00,
2013-01-29 11:40:00,33.0,30.4,29.69,NNW,338,3.0,12.0,90,0.01,,,-99.99,Weather View 32 v60,2013-01-29 17:40:00,
2013-01-29 11:50:00,33.0,30.1,29.69,NE,45,7.0,12.0,89,0.01,,,-99.99,Weather View 32 v60,2013-01-29 17:50:00,
2013-01-29 12:00:00,34.0,31.1,29.69,North,0,5.0,13.0,89,0.01,,,-99.99,Weather View 32 v60,2013-01-29 18:00:00,
2013-01-29 12:05:00,34.0,30.8,29.69,North,0,7.0,13.0,88,0.01,,,-99.99,Weather View 32 v60,2013-01-29 18:05:00,
2013-01-29 12:10:00,34.0,30.8,29.69,North,0,8.0,13.0,88,0.01,,,-99.99,Weather View 32 v60,2013-01-29 18:10:00,
2013-01-29 12:15:00,34.0,30.8,29.69,North,0,6.0,13.0,88,0.01,,,-99.99,Weather View 32 v60,2013-01-29 18:15:00,
2013-01-29 12:20:00,34.0,30.5,29.70,North,0,4.0,13.0,87,0.01,,,-99.99,Weather View 32 v60,2013-01-29 18:20:00,
2013-01-29 12:25:00,34.0,30.5,29.69,North,0,6.0,13.0,87,0.01,,,-99.99,Weather View 32 v60,2013-01-29 18:25:00,
2013-01-29 12:35:00,34.0,30.3,29.70,NNW,338,6.0,13.0,86,0.01,,,-99.99,Weather View 32 v60,2013-01-29 18:35:00,
2013-01-29 12:40:00,34.0,30.3,29.70,North,0,3.0,13.0,86,0.01,,,-99.99,Weather View 32 v60,2013-01-29 18:40:00,
2013-01-29 12:45:00,34.0,30.3,29.70,North,0,8.0,13.0,86,0.01,,,-99.99,Weather View 32 v60,2013-01-29 18:45:00,
2013-01-29 12:50:00,34.0,30.3,29.70,NNW,338,7.0,13.0,86,0.01,,,-99.99,Weather View 32 v60,2013-01-29 18:50:00,
2013-01-29 12:55:00,34.0,30.0,29.69,NNW,338,7.0,13.0,85,0.02,,,-99.99,Weather View 32 v60,2013-01-29 18:55:00,
2013-01-29 13:00:00,34.0,30.0,29.69,NNW,338,4.0,13.0,85,0.02,,,-99.99,Weather View 32 v60,2013-01-29 19:00:00,
2013-01-29 13:05:00,34.0,30.3,29.69,NNW,338,4.0,13.0,86,0.02,,,-99.99,Weather View 32 v60,2013-01-29 19:05:00,
2013-01-29 13:10:00,34.0,30.3,29.69,North,0,4.0,13.0,86,0.02,,,-99.99,Weather View 32 v60,2013-01-29 19:10:00,
2013-01-29 13:15:00,34.0,30.0,29.69,North,0,4.0,13.0,85,0.02,,,-99.99,Weather View 32 v60,2013-01-29 19:15:00,
2013-01-29 13:20:00,34.0,30.0,29.70,NNE,22,6.0,13.0,85,0.02,,,-99.99,Weather View 32 v60,2013-01-29 19:20:00,
2013-01-29 13:25:00,34.0,30.0,29.70,North,0,5.0,11.0,85,0.02,,,-99.99,Weather View 32 v60,2013-01-29 19:25:00,
2013-01-29 13:30:00,34.0,30.0,29.70,NNE,22,3.0,11.0,85,0.02,,,-99.99,Weather View 32 v60,2013-01-29 19:30:00,
2013-01-29 13:35:00,34.0,30.0,29.70,North,0,6.0,11.0,85,0.02,,,-99.99,Weather View 32 v60,2013-01-29 19:35:00,
2013-01-29 13:40:00,34.0,30.0,29.70,NNW,338,4.0,10.0,85,0.02,,,-99.99,Weather View 32 v60,2013-01-29 19:40:00,
2013-01-29 13:50:00,35.0,30.9,29.69,NNE,22,5.0,10.0,85,0.03,,,-99.99,Weather View 32 v60,2013-01-29 19:50:00,
2013-01-29 13:55:00,35.0,30.7,29.69,North,0,6.0,9.0,84,0.02,,,-99.99,Weather View 32 v60,2013-01-29 19:55:00,
2013-01-29 14:00:00,35.0,30.7,29.69,NNE,22,6.0,9.0,84,0.02,,,-99.99,Weather View 32 v60,2013-01-29 20:00:00,
2013-01-29 14:05:00,34.0,29.7,29.69,NNE,22,5.0,11.0,84,0.02,,,-99.99,Weather View 32 v60,2013-01-29 20:05:00,
2013-01-29 14:15:00,34.0,29.7,29.68,NNE,22,6.0,11.0,84,0.02,,,-99.99,Weather View 32 v60,2013-01-29 20:15:00,
2013-01-29 14:25:00,34.0,29.7,29.68,NNE,22,5.0,11.0,84,0.03,,,-99.99,Weather View 32 v60,2013-01-29 20:25:00,
2013-01-29 14:40:00,34.0,29.4,29.69,NNE,22,6.0,15.0,83,0.03,,,-99.99,Weather View 32 v60,2013-01-29 20:40:00,
2013-01-29 14:45:00,34.0,29.7,29.70,NNE,22,5.0,15.0,84,0.03,,,-99.99,Weather View 32 v60,2013-01-29 20:45:00,
2013-01-29 14:55:00,34.0,29.4,29.69,NNE,22,5.0,15.0,83,0.02,,,-99.99,Weather View 32 v60,2013-01-29 20:55:00,
2013-01-29 15:00:00,34.0,29.4,29.69,NNE,22,4.0,15.0,83,0.02,,,-99.99,Weather View 32 v60,2013-01-29 21:00:00,
2013-01-29 15:05:00,34.0,29.4,29.69,NE,45,3.0,15.0,83,0.02,,,-99.99,Weather View 32 v60,2013-01-29 21:05:00,
2013-01-29 15:15:00,33.0,28.4,29.70,NNE,22,3.0,15.0,83,0.02,,,-99.99,Weather View 32 v60,2013-01-29 21:15:00,
2013-01-29 15:20:00,33.0,28.4,29.71,NNE,22,5.0,15.0,83,0.01,,,-99.99,Weather View 32 v60,2013-01-29 21:20:00,
2013-01-29 15:30:00,33.0,28.4,29.71,NE,45,5.0,15.0,83,0.01,,,-99.99,Weather View 32 v60,2013-01-29 21:30:00,
2013-01-29 15:35:00,33.0,28.4,29.71,North,0,3.0,13.0,83,0.01,,,-99.99,Weather View 32 v60,2013-01-29 21:35:00,
2013-01-29 15:40:00,33.0,28.4,29.71,NNE,22,4.0,13.0,83,0.00,,,-99.99,Weather View 32 v60,2013-01-29 21:40:00,
2013-01-29 15:50:00,33.0,28.4,29.72,NE,45,5.0,13.0,83,0.00,,,-99.99,Weather View 32 v60,2013-01-29 21:50:00,
2013-01-29 16:05:00,32.0,27.4,29.73,North,0,6.0,13.0,83,0.00,,,-99.99,Weather View 32 v60,2013-01-29 22:05:00,
2013-01-29 16:10:00,32.0,27.4,29.73,NNE,22,6.0,13.0,83,0.00,,,-99.99,Weather View 32 v60,2013-01-29 22:10:00,
2013-01-29 16:16:00,32.0,27.1,29.74,NNE,22,6.0,13.0,82,0.00,,,-99.99,Weather View 32 v60,2013-01-29 22:16:00,
2013-01-29 16:24:00,32.0,26.8,29.73,North,0,6.0,14.0,81,0.00,,,-99.99,Weather View 32 v60,2013-01-29 22:24:00,
2013-01-29 16:30:00,32.0,26.8,29.73,NNW,338,9.0,14.0,81,0.00,,,-99.99,Weather View 32 v60,2013-01-29 22:30:00,
2013-01-29 16:35:00,31.0,25.9,29.74,NE,45,6.0,14.0,81,0.00,,,-99.99,Weather View 32 v60,2013-01-29 22:35:00,
2013-01-29 16:40:00,31.0,26.1,29.73,NNE,22,10.0,14.0,82,0.00,,,-99.99,Weather View 32 v60,2013-01-29 22:40:00,
2013-01-29 16:50:00,31.0,25.9,29.74,NNE,22,8.0,14.0,81,0.00,,,-99.99,Weather View 32 v60,2013-01-29 22:50:00,
2013-01-29 17:00:00,30.0,24.9,29.75,NE,45,8.0,16.0,81,0.00,,,-99.99,Weather View 32 v60,2013-01-29 23:00:00,
2013-01-29 17:05:00,30.0,24.9,29.75,NNE,22,8.0,16.0,81,0.00,,,-99.99,Weather View 32 v60,2013-01-29 23:05:00,
2013-01-29 17:10:00,28.0,22.9,29.77,NE,45,8.0,19.0,81,0.00,,,-99.99,Weather View 32 v60,2013-01-29 23:10:00,
2013-01-29 17:14:00,30.0,24.6,29.75,North,0,10.0,16.0,80,0.00,,,-99.99,Weather View 32 v60,2013-01-29 23:14:00,
2013-01-29 17:15:00,28.0,22.9,29.78,NNE,22,4.0,19.0,81,0.00,,,-99.99,Weather View 32 v60,2013-01-29 23:15:00,
2013-01-29 17:20:00,30.0,24.6,29.75,North,0,10.0,16.0,80,0.00,,,-99.99,Weather View 32 v60,2013-01-29 23:20:00,
2013-01-29 17:30:00,29.0,23.9,29.75,NNE,22,7.0,19.0,81,0.00,,,-99.99,Weather View 32 v60,2013-01-29 23:30:00,
2013-01-29 17:40:00,29.0,23.9,29.75,NNE,22,7.0,19.0,81,0.00,,,-99.99,Weather View 32 v60,2013-01-29 23:40:00,
2013-01-29 17:50:00,29.0,24.2,29.76,North,0,7.0,19.0,82,0.00,,,-99.99,Weather View 32 v60,2013-01-29 23:50:00,
2013-01-29 17:55:00,28.0,22.6,29.79,NNE,22,10.0,18.0,80,0.00,,,-99.99,Weather View 32 v60,2013-01-29 23:55:00,
2013-01-29 18:00:00,29.0,24.2,29.76,NNE,22,9.0,19.0,82,0.00,,,-99.99,Weather View 32 v60,2013-01-30 00:00:00,
2013-01-29 18:05:00,29.0,24.2,29.76,NNE,22,8.0,19.0,82,0.00,,,-99.99,Weather View 32 v60,2013-01-30 00:05:00,
2013-01-29 18:20:00,28.0,22.6,29.78,NNE,22,5.0,19.0,80,0.00,,,-99.99,Weather View 32 v60,2013-01-30 00:20:00,
2013-01-29 18:25:00,28.0,22.6,29.77,ENE,68,8.0,19.0,80,0.00,,,-99.99,Weather View 32 v60,2013-01-30 00:25:00,
2013-01-29 18:35:00,28.0,22.6,29.78,North,0,6.0,18.0,80,0.00,,,-99.99,Weather View 32 v60,2013-01-30 00:35:00,
2013-01-29 18:44:00,28.0,22.6,29.79,NNE,22,3.0,18.0,80,0.00,,,-99.99,Weather View 32 v60,2013-01-30 00:44:00,
2013-01-29 18:45:00,28.0,22.3,29.75,ENE,68,8.0,17.0,79,0.00,,,-99.99,Weather View 32 v60,2013-01-30 00:45:00,
2013-01-29 18:50:00,28.0,22.6,29.79,NNE,22,4.0,18.0,80,0.00,,,-99.99,Weather View 32 v60,2013-01-30 00:50:00,
2013-01-29 19:05:00,28.0,22.6,29.78,North,0,8.0,18.0,80,0.00,,,-99.99,Weather View 32 v60,2013-01-30 01:05:00,
2013-01-29 19:10:00,28.0,22.6,29.79,NE,45,5.0,18.0,80,0.00,,,-99.99,Weather View 32 v60,2013-01-30 01:10:00,
2013-01-29 19:15:00,28.0,22.6,29.80,NNE,22,3.0,18.0,80,0.00,,,-99.99,Weather View 32 v60,2013-01-30 01:15:00,
2013-01-29 19:25:00,28.0,22.3,29.76,North,0,8.0,18.0,79,0.00,,,-99.99,Weather View 32 v60,2013-01-30 01:25:00,
2013-01-29 19:40:00,28.0,22.3,29.75,ENE,68,5.0,13.0,79,0.00,,,-99.99,Weather View 32 v60,2013-01-30 01:40:00,
2013-01-29 19:50:00,28.0,21.7,29.81,NE,45,6.0,14.0,77,0.00,,,-99.99,Weather View 32 v60,2013-01-30 01:50:00,
2013-01-29 19:55:00,28.0,22.0,29.78,East,90,6.0,17.0,78,0.00,,,-99.99,Weather View 32 v60,2013-01-30 01:55:00,
2013-01-29 20:00:00,28.0,22.0,29.79,NE,45,5.0,17.0,78,0.00,,,-99.99,Weather View 32 v60,2013-01-30 02:00:00,
2013-01-29 20:05:00,28.0,22.0,29.80,NNE,22,6.0,17.0,78,0.00,,,-99.99,Weather View 32 v60,2013-01-30 02:05:00,
2013-01-29 20:14:00,28.0,22.0,29.80,NE,45,6.0,17.0,78,0.00,,,-99.99,Weather View 32 v60,2013-01-30 02:14:00,
2013-01-29 20:15:00,28.0,21.7,29.80,NNE,22,4.0,14.0,77,0.00,,,-99.99,Weather View 32 v60,2013-01-30 02:15:00,
2013-01-29 20:20:00,28.0,22.0,29.80,North,0,4.0,17.0,78,0.00,,,-99.99,Weather View 32 v60,2013-01-30 02:20:00,
2013-01-29 20:30:00,28.0,21.7,29.80,NNE,22,8.0,17.0,77,0.00,,,-99.99,Weather View 32 v60,2013-01-30 02:30:00,
2013-01-29 20:40:00,28.0,21.7,29.81,NNE,22,5.0,17.0,77,0.00,,,-99.99,Weather View 32 v60,2013-01-30 02:40:00,
2013-01-29 20:45:00,28.0,21.7,29.81,NE,45,3.0,14.0,77,0.00,,,-99.99,Weather View 32 v60,2013-01-30 02:45:00,
2013-01-29 20:55:00,28.0,21.7,29.81,NNE,22,4.0,14.0,77,0.00,,,-99.99,Weather View 32 v60,2013-01-30 02:55:00,
2013-01-29 21:00:00,28.0,21.7,29.81,East,90,2.0,14.0,77,0.00,,,-99.99,Weather View 32 v60,2013-01-30 03:00:00,
2013-01-29 21:05:00,28.0,21.7,29.80,NE,45,10.0,14.0,77,0.00,,,-99.99,Weather View 32 v60,2013-01-30 03:05:00,
2013-01-29 21:20:00,28.0,21.7,29.79,NE,45,6.0,14.0,77,0.00,,,-99.99,Weather View 32 v60,2013-01-30 03:20:00,
2013-01-29 21:35:00,27.0,20.4,29.79,NNE,22,6.0,16.0,76,0.00,,,-99.99,Weather View 32 v60,2013-01-30 03:35:00,
2013-01-29 21:40:00,27.0,20.4,29.78,NNE,22,11.0,16.0,76,0.00,,,-99.99,Weather View 32 v60,2013-01-30 03:40:00,
2013-01-29 21:45:00,27.0,20.4,29.78,NNE,22,7.0,18.0,76,0.00,,,-99.99,Weather View 32 v60,2013-01-30 03:45:00,
2013-01-29 21:50:00,27.0,20.1,29.78,North,0,10.0,18.0,75,0.00,,,-99.99,Weather View 32 v60,2013-01-30 03:50:00,
2013-01-29 21:55:00,27.0,20.1,29.78,NNE,22,8.0,18.0,75,0.00,,,-99.99,Weather View 32 v60,2013-01-30 03:55:00,
2013-01-29 22:00:00,27.0,19.8,29.78,NE,45,9.0,21.0,74,0.00,,,-99.99,Weather View 32 v60,2013-01-30 04:00:00,
2013-01-29 22:05:00,27.0,19.8,29.80,North,0,4.0,21.0,74,0.00,,,-99.99,Weather View 32 v60,2013-01-30 04:05:00,
2013-01-29 22:10:00,26.0,18.5,29.81,NNE,22,10.0,18.0,73,0.00,,,-99.99,Weather View 32 v60,2013-01-30 04:10:00,
2013-01-29 22:14:00,27.0,19.5,29.81,North,0,5.0,21.0,73,0.00,,,-99.99,Weather View 32 v60,2013-01-30 04:14:00,
2013-01-29 22:15:00,26.0,18.5,29.80,North,0,11.0,16.0,73,0.00,,,-99.99,Weather View 32 v60,2013-01-30 04:15:00,
2013-01-29 22:20:00,27.0,19.5,29.82,NE,45,5.0,21.0,73,0.00,,,-99.99,Weather View 32 v60,2013-01-30 04:20:00,
2013-01-29 22:25:00,26.0,18.5,29.82,NE,45,8.0,16.0,73,0.00,,,-99.99,Weather View 32 v60,2013-01-30 04:25:00,
2013-01-29 22:30:00,27.0,19.5,29.83,North,0,5.0,21.0,73,0.00,,,-99.99,Weather View 32 v60,2013-01-30 04:30:00,
2013-01-29 22:35:00,27.0,19.5,29.82,North,0,6.0,21.0,73,0.00,,,-99.99,Weather View 32 v60,2013-01-30 04:35:00,
2013-01-29 22:40:00,25.0,17.6,29.82,NNE,22,8.0,16.0,73,0.00,,,-99.99,Weather View 32 v60,2013-01-30 04:40:00,
2013-01-29 22:45:00,27.0,19.5,29.83,North,0,3.0,21.0,73,0.00,,,-99.99,Weather View 32 v60,2013-01-30 04:45:00,
2013-01-29 22:50:00,27.0,19.5,29.83,East,90,2.0,21.0,73,0.00,,,-99.99,Weather View 32 v60,2013-01-30 04:50:00,
2013-01-29 22:55:00,27.0,19.5,29.83,NNE,22,8.0,21.0,73,0.00,,,-99.99,Weather View 32 v60,2013-01-30 04:55:00,
2013-01-29 23:00:00,25.0,17.9,29.81,NNE,22,7.0,19.0,74,0.00,,,-99.99,Weather View 32 v60,2013-01-30 05:00:00,
2013-01-29 23:05:00,24.0,17.2,29.81,NE,45,3.0,19.0,75,0.00,,,-99.99,Weather View 32 v60,2013-01-30 05:05:00,
2013-01-29 23:10:00,24.0,17.2,29.80,NNE,22,10.0,19.0,75,0.00,,,-99.99,Weather View 32 v60,2013-01-30 05:10:00,
2013-01-29 23:15:00,24.0,17.2,29.82,NNE,22,4.0,19.0,75,0.00,,,-99.99,Weather View 32 v60,2013-01-30 05:15:00,
2013-01-29 23:20:00,24.0,17.2,29.82,NNE,22,5.0,19.0,75,0.00,,,-99.99,Weather View 32 v60,2013-01-30 05:20:00,
2013-01-29 23:25:00,23.0,16.6,29.82,North,0,7.0,19.0,76,0.00,,,-99.99,Weather View 32 v60,2013-01-30 05:25:00,
2013-01-29 23:30:00,23.0,16.9,29.82,North,0,4.0,19.0,77,0.00,,,-99.99,Weather View 32 v60,2013-01-30 05:30:00,
2013-01-29 23:35:00,23.0,16.9,29.81,North,0,8.0,19.0,77,0.00,,,-99.99,Weather View 32 v60,2013-01-30 05:35:00,
2013-01-29 23:40:00,23.0,16.9,29.79,ENE,68,5.0,19.0,77,0.00,,,-99.99,Weather View 32 v60,2013-01-30 05:40:00,
2013-01-29 23:45:00,22.0,16.2,29.82,North,0,5.0,19.0,78,0.00,,,-99.99,Weather View 32 v60,2013-01-30 05:45:00,
2013-01-29 23:50:00,22.0,16.2,29.82,NNE,22,7.0,18.0,78,0.00,,,-99.99,Weather View 32 v60,2013-01-30 05:50:00,
2013-01-29 23:55:00,22.0,16.2,29.81,East,90,3.0,18.0,78,0.00,,,-99.99,Weather View 32 v60,2013-01-30 05:55:00,